Please be sure to check the latest weather conditions by clicking the link and viewing our local weather information!

Check Weather

Welcome to Lakeway Airpark (3R9)

FromTheAir

We’re a community airpark nestled within the town of Lakeway, Texas (17 miles northwest of downtown Austin).

Lakeway Airpark, Inc. was formed by Lakeway residents and interested parties to own and manage Lakeway Airpark (3R9).

The Airpark is a privately owned not for profit public use airport for residents and guests of Lakeway. No public funds are used and the airport is supported by fees and fuel sales at the airport.

Lakeway Airpark is an unmanned facility open for use from Sunrise to Sunset seven days a week. Takeoffs and landings are not permitted at night, between Sunset and Sunrise, by City Ordinance.

Quick Weather Info

Available data for KAUS from the past 2 hours
AUSTIN, TX
Metar
KAUS 171453Z 18011KT 10SM SCT021 31/23 A2991 RMK AO2 SLP115 T03060233 50004 $

14:53 UTC

Wind: 180° 11kt

Visibility: 10 SM

Sky: SCT 2100 ft

Temp: 31 deg C / 87.8 deg F

Dewpoint: 23 deg C / 73.4 deg F

Pressure: 29.91 inHg

TAF
KAUS 171128Z 1712/1818 19006KT P6SM SCT015 TEMPO 1712/1715 BKN015 FM171500 17014KT P6SM SCT060 FM180800 18010KT P6SM SCT025
Pirep (1)
AUS UA /OV 3N/TM 1415/FL019/TP B737/SK BKN020-TOP032